Atmospheric History
12/06/2017 18:46  to  12/7/2017 18:46
Change End Date:
To complete the export process:
1) Select all of the data below
2) Copy the data to the clipboard
3) Open a word processor such as Notepad
4) Paste the data into the word processor
5) Save the file

Date/Time (MDT), AirTemp, RH, Dewpoint ,AvgWindSpeed, GustWindSpeed, WindDirection, PrecipType, PrecipIntensity, PrecipAccumulation, PrecipRate
12/07/2017 18:44, 34, 30, 7 ,12, 15, W, None, None, ,  
12/07/2017 18:35, 36, 29, 7 ,12, 16, W, None, None, ,  
12/07/2017 18:34, 36, 29, 7 ,10, 16, W, None, None, ,  
12/07/2017 18:23, 37, 28, 7 ,15, 17, W, None, None, ,  
12/07/2017 18:20, 38, 28, 7 ,16, 17, W, None, None, ,  
12/07/2017 18:13, 38, 27, 8 ,16, 18, W, None, None, ,  
12/07/2017 18:05, 39, 27, 8 ,17, 19, W, None, None, ,  
12/07/2017 18:03, 39, 27, 8 ,17, 19, W, None, None, ,  
12/07/2017 17:53, 37, 27, 7 ,15, 17, W, None, None, ,  
12/07/2017 17:50, 37, 27, 7 ,15, 16, W, None, None, ,  
12/07/2017 17:43, 38, 26, 7 ,13, 17, W, None, None, ,  
12/07/2017 17:35, 37, 26, 6 ,16, 18, W, None, None, ,  
12/07/2017 17:33, 37, 26, 6 ,15, 18, W, None, None, ,  
12/07/2017 17:23, 37, 25, 5 ,16, 17, W, None, None, ,  
12/07/2017 17:20, 38, 25, 5 ,16, 17, W, None, None, ,  
12/07/2017 17:13, 42, 23, 8 ,14, 19, W, None, None, ,  
12/07/2017 17:05, 44, 23, 9 ,17, 21, NW, None, None, ,  
12/07/2017 17:03, 45, 23, 9 ,17, 21, NW, None, None, ,  
12/07/2017 16:53, 44, 23, 9 ,17, 21, NW, None, None, ,  
12/07/2017 16:50, 44, 23, 9 ,17, 21, NW, None, None, ,  
12/07/2017 16:43, 43, 24, 9 ,14, 18, NW, None, None, ,  
12/07/2017 16:35, 42, 24, 8 ,15, 17, W, None, None, ,  
12/07/2017 16:33, 42, 24, 8 ,14, 16, W, None, None, ,  
12/07/2017 16:23, 43, 23, 9 ,13, 19, NW, None, None, ,  
12/07/2017 16:20, 44, 23, 9 ,14, 19, W, None, None, ,  
12/07/2017 16:13, 43, 23, 9 ,15, 17, NW, None, None, ,  
12/07/2017 16:05, 44, 23, 9 ,13, 16, NW, None, None, ,  
12/07/2017 16:03, 44, 23, 10 ,14, 16, W, None, None, ,  
12/07/2017 15:53, 45, 23, 10 ,13, 16, NW, None, None, ,  
12/07/2017 15:50, 45, 23, 10 ,12, 15, W, None, None, ,  
12/07/2017 15:43, 45, 23, 10 ,12, 14, NW, None, None, ,  
12/07/2017 15:35, 47, 22, 11 ,11, 14, W, None, None, ,  
12/07/2017 15:32, 47, 22, 11 ,10, 17, NW, None, None, ,  
12/07/2017 15:22, 47, 22, 11 ,12, 15, NW, None, None, ,  
12/07/2017 15:20, 48, 22, 12 ,8, 13, NW, None, None, ,  
12/07/2017 15:12, 48, 22, 12 ,10, 18, NW, None, None, ,  
12/07/2017 15:05, 49, 22, 12 ,9, 13, NW, None, None, ,  
12/07/2017 15:02, 49, 22, 12 ,11, 15, NW, None, None, ,  
12/07/2017 14:52, 48, 22, 12 ,12, 16, NW, None, None, ,  
12/07/2017 14:50, 49, 22, 12 ,12, 16, NW, None, None, ,  
12/07/2017 14:42, 49, 22, 12 ,9, 15, NW, None, None, ,  
12/07/2017 14:35, 50, 22, 13 ,12, 14, NW, None, None, ,  
12/07/2017 14:32, 50, 22, 13 ,10, 13, W, None, None, ,  
12/07/2017 14:22, 49, 22, 13 ,11, 16, NW, None, None, ,  
12/07/2017 14:20, 50, 22, 13 ,11, 16, NW, None, None, ,  
12/07/2017 14:12, 50, 22, 14 ,12, 19, NW, None, None, ,  
12/07/2017 14:05, 50, 23, 14 ,16, 19, W, None, None, ,  
12/07/2017 14:02, 50, 23, 14 ,12, 18, NW, None, None, ,  
12/07/2017 13:52, 51, 22, 14 ,16, 22, W, None, None, ,  
12/07/2017 13:50, 51, 23, 15 ,15, 20, NW, None, None, ,  
12/07/2017 13:42, 51, 23, 15 ,14, 19, W, None, None, ,  
12/07/2017 13:35, 50, 24, 15 ,15, 19, NW, None, None, ,  
12/07/2017 13:32, 50, 24, 15 ,14, 18, W, None, None, ,  
12/07/2017 13:22, 49, 25, 16 ,15, 20, W, None, None, ,  
12/07/2017 13:20, 49, 25, 15 ,16, 20, W, None, None, ,  
12/07/2017 13:12, 49, 26, 16 ,16, 20, W, None, None, ,  
12/07/2017 13:05, 49, 26, 17 ,14, 19, W, None, None, ,  
12/07/2017 13:02, 49, 26, 16 ,14, 19, W, None, None, ,  
12/07/2017 12:52, 48, 27, 16 ,14, 19, W, None, None, ,  
12/07/2017 12:50, 47, 27, 16 ,17, 19, W, None, None, ,  
12/07/2017 12:41, 47, 27, 16 ,17, 18, W, None, None, ,  
12/07/2017 12:35, 48, 27, 17 ,15, 19, W, None, None, ,  
12/07/2017 12:31, 48, 28, 17 ,16, 20, W, None, None, ,  
12/07/2017 12:21, 48, 29, 17 ,15, 19, W, None, None, ,  
12/07/2017 12:20, 47, 29, 17 ,14, 20, W, None, None, ,  
12/07/2017 12:11, 46, 31, 17 ,17, 21, W, None, None, ,  
12/07/2017 12:05, 45, 32, 17 ,18, 21, W, None, None, ,  
12/07/2017 12:01, 46, 32, 17 ,16, 21, W, None, None, ,  
12/07/2017 11:51, 46, 32, 18 ,18, 21, W, None, None, ,  
12/07/2017 11:50, 46, 32, 18 ,19, 21, W, None, None, ,  
12/07/2017 11:41, 44, 34, 18 ,17, 21, W, None, None, ,  
12/07/2017 11:35, 43, 35, 18 ,18, 21, W, None, None, ,  
12/07/2017 11:31, 44, 35, 18 ,17, 20, W, None, None, ,  
12/07/2017 11:21, 43, 35, 17 ,17, 19, W, None, None, ,  
12/07/2017 11:20, 43, 35, 17 ,16, 19, W, None, None, ,  
12/07/2017 11:11, 42, 35, 17 ,10, 12, W, None, None, ,  
12/07/2017 11:05, 42, 35, 17 ,9, 12, W, None, None, ,  
12/07/2017 11:01, 42, 35, 17 ,11, 13, W, None, None, ,  
12/07/2017 10:51, 43, 35, 17 ,9, 14, W, None, None, ,  
12/07/2017 10:50, 43, 35, 17 ,9, 15, W, None, None, ,  
12/07/2017 10:41, 43, 34, 17 ,12, 17, W, None, None, ,  
12/07/2017 10:35, 43, 34, 17 ,12, 17, W, None, None, ,  
12/07/2017 10:31, 43, 35, 18 ,13, 16, W, None, None, ,  
12/07/2017 10:21, 41, 37, 17 ,13, 17, W, None, None, ,  
12/07/2017 10:20, 41, 37, 17 ,14, 17, W, None, None, ,  
12/07/2017 10:11, 40, 39, 17 ,14, 19, W, None, None, ,  
12/07/2017 10:05, 39, 40, 17 ,14, 20, W, None, None, ,  
12/07/2017 10:01, 38, 41, 17 ,16, 20, W, None, None, ,  
12/07/2017 09:51, 37, 43, 17 ,15, 19, W, None, None, ,  
12/07/2017 09:50, 37, 43, 17 ,16, 19, W, None, None, ,  
12/07/2017 09:41, 34, 46, 16 ,14, 16, W, None, None, ,  
12/07/2017 09:35, 33, 47, 16 ,13, 16, W, None, None, ,  
12/07/2017 09:30, 33, 48, 15 ,12, 14, NW, None, None, ,  
12/07/2017 09:20, 32, 49, 15 ,14, 16, W, None, None, ,  
12/07/2017 09:20, 32, 49, 15 ,13, 16, W, None, None, ,  
12/07/2017 09:10, 31, 50, 15 ,13, 16, W, None, None, ,  
12/07/2017 09:05, 30, 51, 14 ,12, 14, W, None, None, ,  
12/07/2017 09:00, 29, 51, 14 ,10, 12, W, None, None, ,  
12/07/2017 08:50, 28, 52, 13 ,10, 12, NW, None, None, ,  
12/07/2017 08:50, 28, 52, 13 ,10, 12, NW, None, None, ,  
12/07/2017 08:40, 28, 53, 13 ,9, 12, W, None, None, ,  
12/07/2017 08:30, 27, 53, 13 ,9, 12, NW, None, None, ,  
12/07/2017 08:20, 27, 53, 12 ,10, 14, W, None, None, ,  
12/07/2017 08:20, 27, 53, 12 ,11, 14, W, None, None, ,  
12/07/2017 08:10, 27, 53, 12 ,12, 15, W, None, None, ,  
12/07/2017 08:05, 27, 52, 12 ,12, 16, NW, None, None, ,  
12/07/2017 08:00, 27, 52, 12 ,12, 16, W, None, None, ,  
12/07/2017 07:50, 27, 52, 12 ,13, 17, W, None, None, ,  
12/07/2017 07:50, 27, 52, 12 ,13, 17, W, None, None, ,  
12/07/2017 07:40, 28, 51, 13 ,14, 17, W, None, None, ,  
12/07/2017 07:35, 28, 51, 13 ,15, 18, W, None, None, ,  
12/07/2017 07:30, 28, 51, 13 ,16, 19, W, None, None, ,  
12/07/2017 07:20, 28, 51, 13 ,17, 21, W, None, None, ,  
12/07/2017 07:20, 28, 51, 13 ,17, 21, W, None, None, ,  
12/07/2017 07:10, 28, 52, 13 ,18, 21, W, None, None, ,  
12/07/2017 07:05, 28, 52, 12 ,17, 21, W, None, None, ,  
12/07/2017 07:00, 27, 52, 12 ,17, 20, W, None, None, ,  
12/07/2017 06:50, 28, 51, 12 ,16, 20, W, None, None, ,  
12/07/2017 06:40, 27, 51, 12 ,16, 18, W, None, None, ,  
12/07/2017 06:35, 27, 51, 11 ,16, 17, W, None, None, ,  
12/07/2017 06:30, 27, 50, 11 ,16, 17, W, None, None, ,  
12/07/2017 06:20, 28, 48, 11 ,15, 19, W, None, None, ,  
12/07/2017 06:19, 28, 48, 11 ,15, 19, W, None, None, ,  
12/07/2017 06:09, 31, 45, 13 ,12, 14, W, None, None, ,  
12/07/2017 05:59, 35, 42, 15 ,11, 19, NW, None, None, ,  
12/07/2017 05:50, 35, 43, 15 ,15, 17, NW, None, None, ,  
12/07/2017 05:49, 35, 44, 15 ,15, 17, NW, None, None, ,  
12/07/2017 05:39, 33, 46, 15 ,15, 19, NW, None, None, ,  
12/07/2017 05:35, 32, 47, 14 ,16, 19, NW, None, None, ,  
12/07/2017 05:29, 31, 48, 14 ,12, 19, NW, None, None, ,  
12/07/2017 05:20, 29, 50, 13 ,13, 16, NW, None, None, ,  
12/07/2017 05:19, 29, 50, 13 ,12, 15, NW, None, None, ,  
12/07/2017 05:09, 26, 52, 11 ,11, 12, NW, None, None, ,  
12/07/2017 05:05, 26, 52, 11 ,7, 11, NW, None, None, ,  
12/07/2017 04:59, 27, 51, 11 ,8, 11, NW, None, None, ,  
12/07/2017 04:50, 28, 50, 12 ,9, 13, NW, None, None, ,  
12/07/2017 04:49, 28, 50, 12 ,9, 13, NW, None, None, ,  
12/07/2017 04:39, 28, 50, 12 ,11, 14, NW, None, None, ,  
12/07/2017 04:35, 28, 50, 12 ,12, 15, NW, None, None, ,  
12/07/2017 04:29, 27, 50, 11 ,12, 15, NW, None, None, ,  
12/07/2017 04:20, 28, 49, 12 ,12, 14, NW, None, None, ,  
12/07/2017 04:19, 28, 49, 12 ,12, 16, NW, None, None, ,  
12/07/2017 04:09, 29, 49, 12 ,13, 17, W, None, None, ,  
12/07/2017 04:05, 29, 49, 12 ,14, 17, NW, None, None, ,  
12/07/2017 03:59, 28, 50, 12 ,14, 17, NW, None, None, ,  
12/07/2017 03:50, 27, 50, 11 ,10, 17, NW, None, None, ,  
12/07/2017 03:49, 27, 50, 11 ,11, 17, NW, None, None, ,  
12/07/2017 03:39, 27, 50, 11 ,14, 18, W, None, None, ,  
12/07/2017 03:35, 27, 50, 11 ,13, 16, W, None, None, ,  
12/07/2017 03:29, 27, 49, 11 ,13, 17, W, None, None, ,  
12/07/2017 03:20, 28, 49, 11 ,14, 21, W, None, None, ,  
12/07/2017 03:19, 28, 49, 11 ,17, 21, W, None, None, ,  
12/07/2017 03:09, 28, 48, 11 ,16, 21, W, None, None, ,  
12/07/2017 03:05, 28, 48, 11 ,16, 21, W, None, None, ,  
12/07/2017 02:58, 29, 48, 12 ,17, 20, W, None, None, ,  
12/07/2017 02:50, 29, 48, 12 ,17, 22, W, None, None, ,  
12/07/2017 02:48, 29, 48, 12 ,17, 22, W, None, None, ,  
12/07/2017 02:38, 29, 48, 12 ,18, 21, W, None, None, ,  
12/07/2017 02:35, 29, 48, 12 ,18, 20, W, None, None, ,  
12/07/2017 02:28, 28, 48, 12 ,17, 19, W, None, None, ,  
12/07/2017 02:20, 28, 49, 11 ,17, 19, W, None, None, ,  
12/07/2017 02:18, 27, 49, 11 ,17, 19, W, None, None, ,  
12/07/2017 02:08, 28, 48, 11 ,16, 19, W, None, None, ,  
12/07/2017 01:58, 27, 48, 11 ,16, 17, W, None, None, ,  
12/07/2017 01:50, 28, 47, 11 ,14, 17, W, None, None, ,  
12/07/2017 01:48, 28, 47, 11 ,14, 17, W, None, None, ,  
12/07/2017 01:38, 29, 47, 11 ,14, 17, W, None, None, ,  
12/07/2017 01:28, 29, 47, 11 ,15, 18, W, None, None, ,  
12/07/2017 01:20, 29, 47, 12 ,16, 19, NW, None, None, ,  
12/07/2017 01:18, 29, 47, 12 ,17, 19, NW, None, None, ,  
12/07/2017 01:08, 29, 47, 12 ,14, 17, NW, None, None, ,  
12/07/2017 01:05, 29, 47, 12 ,13, 17, NW, None, None, ,  
12/07/2017 00:58, 29, 48, 12 ,14, 17, W, None, None, ,  
12/07/2017 00:50, 28, 48, 11 ,14, 16, W, None, None, ,  
12/07/2017 00:48, 28, 49, 11 ,13, 16, W, None, None, ,  
12/07/2017 00:38, 28, 49, 11 ,12, 14, W, None, None, ,  
12/07/2017 00:35, 28, 49, 11 ,12, 14, W, None, None, ,  
12/07/2017 00:28, 28, 49, 11 ,12, 14, NW, None, None, ,  
12/07/2017 00:20, 28, 49, 11 ,11, 14, NW, None, None, ,  
12/07/2017 00:18, 27, 49, 11 ,10, 12, NW, None, None, ,  
12/07/2017 00:08, 27, 49, 11 ,11, 15, NW, None, None, ,  
12/07/2017 00:05, 27, 50, 11 ,11, 15, NW, None, None, ,  
12/06/2017 23:57, 27, 50, 11 ,12, 16, W, None, None, ,  
12/06/2017 23:50, 27, 51, 11 ,12, 14, W, None, None, ,  
12/06/2017 23:47, 26, 51, 11 ,11, 14, NW, None, None, ,  
12/06/2017 23:37, 26, 50, 10 ,6, 8, NW, None, None, ,  
12/06/2017 23:35, 26, 50, 11 ,6, 10, NW, None, None, ,  
12/06/2017 23:27, 27, 49, 11 ,9, 12, W, None, None, ,  
12/06/2017 23:20, 28, 48, 11 ,11, 14, W, None, None, ,  
12/06/2017 23:17, 28, 48, 11 ,11, 14, W, None, None, ,  
12/06/2017 23:07, 29, 47, 12 ,12, 15, W, None, None, ,  
12/06/2017 23:05, 29, 46, 12 ,12, 15, W, None, None, ,  
12/06/2017 22:57, 30, 46, 12 ,13, 16, W, None, None, ,  
12/06/2017 22:50, 30, 46, 12 ,13, 16, W, None, None, ,  
12/06/2017 22:47, 30, 46, 12 ,14, 16, W, None, None, ,  
12/06/2017 22:37, 31, 45, 12 ,12, 16, W, None, None, ,  
12/06/2017 22:35, 31, 45, 12 ,13, 16, W, None, None, ,  
12/06/2017 22:27, 30, 45, 12 ,12, 14, W, None, None, ,  
12/06/2017 22:20, 30, 45, 12 ,12, 13, W, None, None, ,  
12/06/2017 22:17, 30, 45, 12 ,11, 13, W, None, None, ,  
12/06/2017 22:07, 31, 44, 12 ,11, 12, W, None, None, ,  
12/06/2017 22:05, 31, 44, 12 ,11, 12, W, None, None, ,  
12/06/2017 21:57, 31, 45, 13 ,11, 14, W, None, None, ,  
12/06/2017 21:50, 31, 45, 12 ,11, 14, W, None, None, ,  
12/06/2017 21:47, 31, 45, 12 ,11, 13, W, None, None, ,  
12/06/2017 21:37, 31, 45, 12 ,11, 12, W, None, None, ,  
12/06/2017 21:35, 31, 45, 12 ,11, 12, W, None, None, ,  
12/06/2017 21:27, 30, 45, 12 ,10, 12, W, None, None, ,  
12/06/2017 21:20, 31, 45, 12 ,10, 11, W, None, None, ,  
12/06/2017 21:17, 31, 45, 12 ,10, 11, W, None, None, ,  
12/06/2017 21:07, 31, 44, 12 ,9, 11, W, None, None, ,  
12/06/2017 21:05, 31, 44, 12 ,9, 12, W, None, None, ,  
12/06/2017 20:57, 31, 44, 12 ,10, 12, W, None, None, ,  
12/06/2017 20:50, 31, 43, 12 ,10, 12, W, None, None, ,  
12/06/2017 20:47, 31, 43, 12 ,11, 12, W, None, None, ,  
12/06/2017 20:36, 32, 43, 12 ,11, 13, W, None, None, ,  
12/06/2017 20:35, 32, 43, 12 ,11, 13, W, None, None, ,  
12/06/2017 20:26, 32, 43, 12 ,11, 12, W, None, None, ,  
12/06/2017 20:20, 33, 43, 13 ,11, 13, W, None, None, ,  
12/06/2017 20:16, 33, 43, 13 ,10, 13, W, None, None, ,  
12/06/2017 20:06, 32, 43, 13 ,12, 14, W, None, None, ,  
12/06/2017 20:05, 32, 43, 13 ,12, 14, W, None, None, ,  
12/06/2017 19:56, 32, 43, 13 ,11, 12, W, None, None, ,  
12/06/2017 19:50, 32, 43, 13 ,9, 11, W, None, None, ,  
12/06/2017 19:46, 32, 43, 13 ,9, 11, W, None, None, ,  
12/06/2017 19:36, 32, 43, 12 ,9, 11, W, None, None, ,  
12/06/2017 19:35, 32, 43, 12 ,9, 11, W, None, None, ,  
12/06/2017 19:26, 32, 43, 12 ,9, 11, W, None, None, ,  
12/06/2017 19:20, 32, 43, 12 ,9, 11, W, None, None, ,  
12/06/2017 19:16, 32, 43, 12 ,9, 11, W, None, None, ,  
12/06/2017 19:06, 32, 43, 12 ,9, 11, W, None, None, ,  
12/06/2017 19:05, 32, 43, 12 ,9, 11, W, None, None, ,  
12/06/2017 18:56, 32, 43, 12 ,9, 11, W, None, None, ,  
12/06/2017 18:50, 32, 43, 12 ,9, 11, W, None, None, ,  
12/06/2017 18:46, 32, 43, 12 ,10, 12, W, None, None, ,  
Change End Date:

Copyright © 1998-2015 Vaisala, Inc.
All Rights Reserved
Send comments about the data to:
SCAN Web ® is a registered trademark of Vaisala, Inc.
SCAN Web Version 6.0